SCOUT A DEB, 3122

Orbit data source: Space-Track

SCOUT A DEB, 3122 is space debris in LEO originally from a launch on Mon, 25 Sep 1967 UTC launched from the Air Force Western Test Range (AFWTR). Debris objects in space refer to the collection of defunct objects orbiting the Earth. Examples of debris include non-operational satellites, rocket bodies, and fragments generated from explosions, collisions, or faulty payload assembly.

Loading next visibility...
Identifier
3122, 1967-092D
Orbit
LEO
Country
Flag of USUS
Related business
Manufacturer
Unknown
Mission
Spacecraft
Bus & Motor
Unknown
Mass
Unknown
Launch date (UTC)
1967-09-25 (58 years ago)
Launch vehicle
Unknown
Launch site
Air Force Western Test Range (AFWTR)
Object type
Payload
Rocket body
Debris
Shape & HBR
Unknown
Radar Cross Section
Small (<0.1 m²)

Expand to show TLE details & history
Last TLE update: 14 hours ago

TLE from 14 hours ago
0 SCOUT A DEB
1 03122U 67092D   25259.36753022  .00000221  00000-0  43984-3 0  9999
2 03122  89.0642 113.1013 0184165 264.2277 275.5656 13.25861419546735
Epoch: 2025-09-16T08:49Z
TLE epoch observation values (Epoch: 2025-09-16T08:49:14.611Z)
Latitude
2.21027°
Longitude
165.19564°
Altitude
1,154.141 km
Speed
7.281 km/s
True Right ascension
19h 32m 15s
True Declination
2° 11' 52"
Sunlit
Object was in daylight at epoch
Visualization orbit readout
Latitude
Unknown
Longitude
Unknown
Altitude
Unknown
Speed
Unknown
Apparent Right ascension
Unknown
Apparent Declination
Unknown
Sunlit
N/A
Visualization observer readout
Local Sidereal Time
15:56:35
Azimuth
Unknown
Elevation
Unknown
Doppler factor
Unknown
Orbital elements
Apogee altitude
1,298.317 km
Perigee altitude
1,020.683 km
Semi-major axis
7,537.637 km
Eccentricity
0.01842
Inclination
89.0642°
RAAN
113.1013°
Arg. of periapsis
264.2277°
True anomaly
273.46095°
Mean anomaly
275.5656°
Eccentric anomaly
274.51368°
Mean motion
3.31658 °/min
Orbital period
108.55 mins
BSTAR
0.00043984
Loading maneuver chart data...
Computing Atmospheric mass density...
Loading historical data...
Loading historical data...
Loading historical data...
Loading historical data...
Loading historical data...
Loading historical data...
Loading historical data...

Documentation

Showing up to 5 results
|